Flag for Germany Weather past 2 weeks in Neuburg an der Donau, Bavaria, Germany

Now
45 °F

Scattered clouds.


Feels Like: 39 °F
Forecast: 34 / 42 °F
Wind: 10 mph from West

Location: Neuburg / Donau

Current Time: Mar 3, 2015 at 2:20:47 PM

Latest Report: Mar 3, 2015 at 1:20 PM


Visibility: N/A

Pressure: 30.18 "Hg

Humidity: 53%

Dew point: 28 °F

Location of Neuburg an der DonauLocation

Historic Weather in Neuburg an der Donau — Graph

°F

Neuburg an der Donau temperature yesterday

Maximum temperature yesterday: 48 °F (at 5:20 AM)
Minimum temperature yesterday: 36 °F (at 8:20 PM)
Average temperature yesterday: 42 °F

Past Weeks' High & Low Weather Summary

 TemperatureHumidityPressure
High48 °F (Mar 2, 5:20 AM)100% (Feb 16, 6:20 PM)30.72 "Hg (Feb 16, 6:20 PM)
Low23 °F (Feb 20, 6:20 AM)53% (Feb 26, 3:20 PM)29.50 "Hg (Feb 21, 1:20 PM)
Average33 °F90%30.02 "Hg
* Reported Feb 16 12:20 PM — Mar 3 12:20 PM, Neuburg an der Donau, Weather by CustomWeather, © 2015

Note: Actual official high and low records may vary slightly from our data, if they occured in-between our weather recording intervals... More about our weather records

Advertising

Neuburg an der Donau weather history for previous 24 hours

 ConditionsComfort  
Time TempWeatherWind HumidityBarometerVisibility
12:20 PM
Tue, Mar 3
45 °FScattered clouds.10 mph53%30.18 "HgN/A
11:20 AM43 °FPassing clouds.14 mph61%30.21 "HgN/A
10:20 AM39 °FPassing clouds.14 mph70%30.21 "HgN/A
9:20 AM37 °FPassing clouds.9 mph70%30.21 "HgN/A
8:20 AM34 °FScattered clouds.2 mph81%30.18 "HgN/A
7:20 AM34 °FPartly sunny.7 mph81%30.18 "HgN/A
6:20 AM34 °FPassing clouds.12 mph81%30.15 "HgN/A
5:20 AM34 °FChilly.13 mph81%30.15 "HgN/A
4:20 AM34 °FChilly.15 mph81%30.15 "HgN/A
3:20 AM34 °FChilly.9 mph81%30.15 "HgN/A
2:20 AM36 °FChilly.15 mph70%30.12 "HgN/A
1:20 AMN/A12 mphN/AN/AN/A
12:20 AM36 °FChilly.18 mph75%30.09 "HgN/A
11:20 PM
Mon, Mar 2
36 °FChilly.10 mph87%30.04 "HgN/A
10:20 PM37 °FChilly.21 mph81%29.98 "HgN/A
9:20 PM36 °FChilly.14 mph87%29.95 "HgN/A
8:20 PM36 °FChilly.12 mph93%29.92 "HgN/A
7:20 PM39 °FChilly.13 mph81%29.89 "HgN/A
6:20 PM41 °FQuite cool.14 mph76%29.86 "HgN/A
5:20 PM43 °FBroken clouds.14 mph66%29.83 "HgN/A
4:20 PM43 °FPartly sunny.16 mph71%29.80 "HgN/A
3:20 PM41 °FBroken clouds.9 mph81%29.80 "HgN/A
2:20 PM41 °FSprinkles. Broken clouds.17 mph76%29.80 "Hg5 mi
Weather by CustomWeather, © 2015

See weather overviewHow to use our weather pages